Flag for U.S.A. Weather past 2 weeks in Overland Park, Kansas, U.S.A.

Now
68 °F

Thundershowers. Partly sunny.


Feels Like: 68 °F
Forecast: 62 / 84 °F
Wind: 10 mph from Northeast

Location: Johnson County Executive Airport

Current Time: Aug 27, 2015 at 2:26:05 PM

Latest Report: Aug 27, 2015 at 2:00 PM


Visibility: 9 mi

Pressure: 30.14 "Hg

Humidity: 96%

Dew point: 67 °F

Location of Overland ParkLocation

Historic Weather in Overland Park — Graph

°F

Overland Park temperature yesterday

Maximum temperature yesterday: 81 °F (at 3:53 PM)
Minimum temperature yesterday: 61 °F (at 5:53 AM)
Average temperature yesterday: 70 °F

Past Weeks' High & Low Weather Summary

 TemperatureHumidityPressure
High90 °F (Aug 17, 4:53 PM)97% (Aug 17, 7:53 AM)30.19 "Hg (Aug 17, 7:53 AM)
Low51 °F (Aug 24, 6:53 AM)37% (Aug 24, 1:53 PM)29.63 "Hg (Aug 18, 5:53 PM)
Average72 °F70%30.01 "Hg
* Reported Aug 12 1:53 PM — Aug 27 1:04 PM, Overland Park, Weather by CustomWeather, © 2015

Note: Actual official high and low records may vary slightly from our data, if they occured in-between our weather recording intervals... More about our weather records

Advertising

Overland Park weather history for previous 24 hours

 ConditionsComfort  
Time TempWeatherWind HumidityBarometerVisibility
1:04 PM
Thu, Aug 27
72 °FThunderstorms. More clouds than sun.5 mph84%30.11 "Hg10 mi
12:53 PM73 °FThundershowers. Overcast.No wind84%30.06 "Hg10 mi
11:53 AM72 °FScattered clouds.12 mph87%30.04 "Hg10 mi
10:53 AM67 °FThundershowers. Scattered clouds.12 mph97%30.06 "Hg10 mi
9:53 AM65 °FThunderstorms. Overcast.10 mph97%30.06 "Hg10 mi
8:53 AM62 °FThunderstorms. Low clouds.16 mph96%30.05 "Hg10 mi
8:03 AM62 °FThunderstorms. Fog.14 mph96%30.09 "Hg3 mi
7:02 AM63 °FStrong thunderstorms. Mostly cloudy.14 mph81%30.08 "Hg1 mi
5:53 AM65 °FThundershowers. Mostly cloudy.6 mph73%30.06 "Hg10 mi
4:53 AM64 °FPassing clouds.8 mph78%30.06 "Hg10 mi
3:53 AM64 °FPassing clouds.7 mph81%30.06 "Hg10 mi
2:53 AM64 °FClear.7 mph84%30.06 "Hg10 mi
1:53 AM65 °FClear.7 mph85%30.06 "Hg10 mi
12:53 AM66 °FClear.7 mph81%30.09 "Hg10 mi
11:53 PM
Wed, Aug 26
67 °FClear.6 mph81%30.09 "Hg10 mi
10:53 PM68 °FClear.7 mph78%30.10 "Hg10 mi
9:53 PM70 °FClear.5 mph73%30.10 "Hg10 mi
8:53 PM72 °FSunny.5 mph68%30.08 "Hg10 mi
7:53 PM74 °FSunny.5 mph64%30.06 "Hg10 mi
6:53 PM77 °FSunny.3 mph58%30.06 "Hg10 mi
5:53 PM79 °FSunny.7 mph52%30.07 "Hg10 mi
4:53 PM80 °FSunny.6 mph51%30.10 "Hg10 mi
3:53 PM81 °FSunny.5 mph47%30.11 "Hg10 mi
2:53 PM80 °FSunny.6 mph49%30.13 "Hg10 mi
Weather by CustomWeather, © 2015

See weather overviewHow to use our weather pages